Starlink 32686

operational
NORAD ID: 62192 Int'l Des: 2024-229 Owner: SPXS Country: US Constellation: starlink
LEOCIRCULAR

About Starlink 32686

Description loading...

Live Position

Loading 3D Globe...

Upcoming Passes

Altitude History

Altitude vs Time

uPlot chart will show altitude changes over time

Two-Line Element Set

1 62192U 24229A 25303.24574129 .00049864 00000-0 18082-2 0 9998
2 62192 43.0011 283.7708 0000719 270.7329 89.3440 15.27600111 50651
Epoch: Oct 30, 2025 • Age: 10 hours

Current Status

Altitude 486.4 km
Velocity 7.63 km/s
Sub-Earth Point 42.87°N, 104.35°E
Launch Date Dec 4, 2024
Age 0.9 years
Type internet

Technical Details

Classification Payload
Mass 730.00 kg
Dry Mass 700.00 kg
Total Mass 730.00 kg
Length 0.30 m
Diameter 4.10 m
Span 29.00 m
Shape Box + pan
Manufacturer SPXS
Bus Type Starlink V2M
Phase Status In Orbit
Owner/State SPXS/US

Large Constellations

Loading constellations...